Terug naar catalogus

STARLINK-32801

ActiefCommunicatieVLEO
NORAD 63035·PAYLOAD·🇺🇸 United States

Gelanceerd Feb 18, 2025 vanaf Cape Canaveral Space Force Station

Loading…

Volgende Passages (komende 24 uur)

TLE

VersSource: CelesTrak SupGP

Epoch: Sep 14, 2026, 22:29 UTC

1 63035C 25034G   26257.93729167  .00037749  00000+0  11151-2 0  2574
2 63035  53.1586  95.5093 0001269  82.5339 218.1671 15.34375871    17

Volg STARLINK-32801 in realtime met AllMySat

Download on the App Store